Location: Foulognes
(49.1413°N, 0.8183°W)
Time: 11:14:02
(UTC+00:00)

Cosmos 1892 - Pass Details

Date: 21 October 2019
Orbit: 503 x 526 km, 82.5° (Epoch: 17 November)

Event Time Altitude Azimuth Distance (km) Brightness Sun altitude
Rises 19:02:37 0° 354° (N) 2,638 6.5 -20.3°
Reaches altitude 10° 19:04:49 10° 0° (N) 1,742 5.4 -20.7°
Enters shadow 19:06:55 29° 17° (NNE) 968 3.9 -21.0°
